Location: Roanoke
(37.2710°N, 79.9420°W)
Time: 14:50:16
(UTC-05:00)

Daily predictions for brighter satellites

Satellite Brightness Start Highest point End
(mag) Time Altitude Azimuth Time Altitude Azimuth Time Altitude Azimuth
IDEFIX/ARIANE 42P 2.8 17:25:08 10° SE 17:30:06 48° ENE 17:35:05 10° N
Cosmos 2154 Rocket 4.1 17:24:11 10° N 17:30:26 90° E 17:36:41 10° S
USA 32 4.5 17:29:25 10° SSE 17:34:14 39° E 17:39:04 10° NNE
BREEZE M DEB (TANK) 4.4 17:36:00 10° NNW 17:38:13 16° NNE 17:41:54 10° ENE
Okean 1 Rocket 3.5 17:35:27 10° NNW 17:39:45 66° W 17:44:02 10° S
Cosmos 1536 2.8 17:36:31 10° N 17:40:36 77° E 17:44:38 10° S
COSMO-SKYMED 1 3.6 17:41:15 10° NE 17:44:57 27° E 17:48:37 10° SSE
Cosmos 1461 3.1 17:41:17 10° NW 17:45:13 69° WSW 17:49:09 10° SSE
Hubble Space Telescope 3.1 17:42:28 10° WSW 17:45:32 20° S 17:48:37 10° SE
Cosmos 1544 Rocket 4.2 17:42:58 10° NNE 17:47:04 35° ENE 17:51:08 10° SE
Cosmos 1975 Rocket 3.0 17:43:19 10° S 17:47:38 89° ENE 17:51:58 10° N
Cosmos 372 Rocket 4.1 17:43:18 10° SSW 17:48:33 83° WNW 17:53:50 10° NNE
Meteor 1-11 Rocket 4.5 17:43:37 10° NNW 17:49:01 56° W 17:54:24 10° S
MSX 4.0 17:43:35 10° SE 17:49:06 50° ENE 17:54:40 10° N
USA 234 4.3 17:44:11 10° NNE 17:50:06 38° NNW 17:56:00 10° W
SMAP 3.0 17:45:44 10° SSE 17:50:22 78° ENE 17:55:02 10° N
AQUARIUS 4.1 17:46:36 10° SSE 17:51:06 80° ENE 17:55:36 10° N
Okean 3 4.4 17:48:10 10° SSW 17:52:21 52° W 17:56:33 10° N
SJ-12 3.9 17:48:23 10° SSE 17:52:28 87° WSW 17:56:35 10° NNW
Cosmos 2263 Rocket 4.2 17:50:06 10° WSW 17:54:32 24° WNW 17:59:01 10° N
CZ-3B DEB 1.7 17:54:17 10° SW 17:57:27 77° SE 18:05:05 11° NE
Thor Agena Rocket 3.8 17:52:18 10° N 17:57:29 74° WNW 18:02:42 10° SSW
NOSS 3-1 (A) 4.4 17:50:53 10° NW 17:58:37 72° WSW 18:06:58 10° SSE
CZ-4 R/B 2.1 17:54:38 10° S 17:58:46 60° W 18:02:55 10° NNW
Cosmos 1346 Rocket 4.2 17:59:43 10° SE 18:02:26 18° E 18:02:56 18° E
Cosmos 1536 Rocket 4.0 18:00:01 10° SSE 18:04:09 39° E 18:08:19 10° NNE
Cosmos 1812 2.8 18:04:10 10° S 18:07:54 50° E 18:11:39 10° NNE
ATLAS 2AS CENTAUR R/B 3.2 18:03:00 10° NNW 18:10:50 50° NE 18:18:08 10° SE
YAOGAN 1 3.0 18:06:36 10° S 18:10:53 65° WSW 18:15:12 10° NNW
SL-8 Rocket 3.9 18:04:54 10° N 18:11:06 86° E 18:17:15 10° S
Meteor 1-12 Rocket 4.4 18:07:36 10° N 18:13:13 50° ENE 18:18:52 10° SSE
Cosmos 2251 Rocket 3.7 18:08:46 10° N 18:13:57 48° ENE 18:19:04 10° SE
EP 2 4.5 18:17:48 10° SSW 18:20:22 46° ESE 18:20:35 45° E
Cosmos 2366 rocket 3.9 18:14:14 10° N 18:20:37 75° E 18:26:55 10° SSE
Cosmos 1975 3.3 18:17:00 10° N 18:20:50 38° E 18:24:37 10° SSE
Cosmos 1844 Rocket 3.0 18:15:26 10° SSW 18:20:58 65° WNW 18:26:34 10° NNE
Cosmos 2218 Rocket 4.0 18:14:40 10° N 18:21:00 85° E 18:27:13 10° S
OTV 4 0.6 18:19:22 10° W 18:22:21 67° SSW 18:23:24 35° ESE
Cosmos 1844 3.8 18:22:23 10° SSW 18:27:57 78° WNW 18:33:29 10° NNE
GEOS 3 Rocket 3.5 18:24:27 10° SE 18:29:32 68° NE 18:34:37 10° NNW
SL-27 R/B 2.4 18:27:12 10° NNW 18:30:52 85° ENE 18:34:30 10° SSE
SKYMED 2 3.6 18:28:47 10° N 18:33:08 82° WNW 18:37:28 10° SSW
DMSP B5D1-3 4.4 18:28:42 10° NNE 18:33:52 72° ESE 18:38:58 10° S
Cosmos 1455 Rocket 3.1 18:32:34 10° N 18:36:59 80° W 18:41:23 10° S
SL-8 R/B 3.6 18:32:37 10° SW 18:37:22 73° SE 18:39:03 39° ENE
ISS -1.7 18:35:04 10° W 18:37:57 27° NNW 18:38:49 24° N
BREEZE-M R/B 4.3 18:34:04 10° SW 18:45:02 77° NW 18:47:38 33° NE
Cosmos 2278 Rocket 2.1 18:40:38 10° SSW 18:46:17 90° ESE 18:50:04 22° NNE
Meteor 1-13 Rocket 4.3 18:42:09 10° S 18:47:35 54° E 18:50:26 28° NNE
Cosmos 1809 Rocket 4.3 18:47:07 10° N 18:53:17 74° E 18:59:23 10° SSE
Cosmos 1484 Rocket 3.9 18:50:33 10° S 18:54:09 42° W 18:57:44 10° NNW
Tiangong 1 3.7 19:05:56 10° SSW 19:06:37 15° SSW 19:06:37 15° SSW
Cosmos 2082 Rocket 3.6 19:08:24 10° N 19:10:50 24° N 19:10:50 24° N
Nadezhda 3 Rocket 4.0 19:07:40 10° S 19:13:50 77° W 19:20:06 10° N
Cosmos 1833 Rocket 4.5 19:16:37 10° N 19:18:13 18° N 19:18:13 18° N
ATLAS 2AS CENTAUR R/B 4.3 19:54:33 10° NW 20:01:35 36° WSW 20:08:10 10° S
FALCON 9 R/B 3.0 19:47:05 10° W 20:01:52 70° SW 20:01:52 70° SW
ATLAS 3B CENTAUR R/B 3.9 20:13:13 10° WSW 20:22:04 35° SW 20:22:04 35° SW
